レモン彗星

C/2019 T2 ( Lemmon )

English version
Home page
Updated on January 23, 2021

---------------------------------------------------------------------

・ プロフィール

発見日 2019年10月9日
発見光度 20.6等
発見者 Mt. Lemmon Survey

・ 写真集

・ 軌道要素

Epoch 2021 Apr. 16.0 TT = JDT 2459320.5
T 2021 Apr. 22.27218 TT                                 Rudenko
q   2.6459951            (2000.0)            P               Q
z  +0.0005026      Peri.  239.38507     +0.33391432     -0.86094759
 +/-0.0000017      Node   155.64261     -0.13766912     +0.35821623
e   0.9986700      Incl.  111.48900     -0.93249581     -0.36117915
From 633 observations 2019 Aug. 26-2020 Oct. 17, mean residual 0".6.

・ 星図

・ 光度変化

        m1 = 8.0 + 5 logΔ + 11.0 log r

---------------------------------------------------------------------

軌道要素はM.P.E.C. 2020-U96に掲載されたものです。
星図はステラナビゲータ Ver.10 (アストロアーツ) で作成したものです。
光度グラフはComet for Windowsで作成したものです。

---------------------------------------------------------------------

Copyright(C) Seiichi Yoshida (comet@aerith.net). All rights reserved.